GEFSSE_con_cape1000_132.txt.gz
Probability
87 97 100 100 100 100 100 100 100 97 97 97 97 97 97 97 94 97 97 94 90 94 90 90 90 84 81 87 77 77 81 81 81 84 84 87 90 94 97 81 81 77 90
90 97 100 100 100 100 100 100 100 100 97 97 97 97 100 100 94 97 90 94 90 90 90 87 94 97 94 94 90 84 81 84 81 81 84 84 87 87 94 81 84 87 90
90 97 100 100 100 100 100 100 100 100 100 100 100 100 100 97 97 97 97 97 94 94 97 90 94 90 87 94 84 84 74 84 77 77 90 55 71 94 97 94 90 90 90
87 97 100 100 100 100 100 100 100 100 100 100 100 100 100 100 100 97 97 97 94 97 94 90 90 87 87 84 81 77 81 77 84 77 77 55 61 90 97 94 94 90 90
90 94 100 100 100 100 100 100 100 100 100 100 100 100 100 100 97 97 100 94 90 94 94 90 87 87 84 77 81 77 81 77 74 74 81 81 84 94 97 94 90 90 94
94 94 100 100 100 100 100 100 100 100 100 100 100 100 100 97 94 94 100 100 97 90 94 90 84 84 87 84 81 74 74 81 77 81 84 90 90 94 94 97 97 97 97
94 94 100 100 100 100 100 100 100 100 100 100 100 100 100 97 90 87 90 94 90 87 97 94 84 84 87 84 81 77 84 81 84 87 87 90 90 90 90 87 94 97 97
97 94 100 100 100 100 100 100 100 100 100 97 100 97 97 97 87 87 87 87 84 81 84 81 90 87 81 81 77 77 84 90 74 65 84 87 90 90 84 81 90 94 97
94 94 97 100 100 100 100 100 100 100 100 97 97 97 97 97 94 94 90 90 90 81 77 71 77 84 71 71 68 58 74 90 81 77 65 87 90 94 87 90 90 84 94
94 97 100 100 100 100 100 100 100 100 100 100 100 97 97 97 94 94 97 94 94 84 74 74 77 77 77 74 61 65 84 90 58 52 77 84 100 97 94 97 90 94 87
97 100 97 97 97 100 94 100 100 100 100 100 100 100 100 97 90 94 97 94 81 81 84 77 74 65 71 81 81 84 77 58 29 58 74 87 100 97 94 94 87 84 90
94 97 100 97 97 100 97 100 100 100 100 100 100 100 100 100 100 90 90 94 87 81 81 81 81 77 81 81 77 84 65 55 42 55 68 90 100 97 94 97 94 87 87
94 90 94 97 97 97 94 100 97 97 97 97 97 97 97 100 94 90 87 87 97 94 87 84 84 81 74 84 74 68 48 26 39 55 71 87 90 94 94 94 94 94 94
90 90 97 97 100 100 100 100 97 94 90 87 90 90 94 97 100 94 97 94 94 94 94 90 87 81 74 55 48 42 26 32 42 52 68 90 94 90 90 94 97 94 94
84 87 90 94 90 94 94 97 90 87 84 87 90 90 87 87 94 90 97 97 84 90 94 94 77 74 74 55 48 48 45 42 39 42 74 87 90 90 87 87 94 97 97
87 90 90 90 90 90 87 87 84 84 90 84 84 84 84 84 97 90 90 84 84 84 84 90 74 74 68 65 58 55 52 48 52 55 71 74 87 87 84 87 90 94 90
84 90 94 94 94 87 84 81 81 84 84 81 84 84 84 77 81 77 74 81 77 81 81 84 74 55 48 52 55 45 55 65 61 58 61 74 71 87 87 87 87 90 90
77 81 90 84 84 84 84 81 74 74 77 81 84 74 71 68 65 74 68 65 68 68 71 81 71 65 61 55 55 52 52 61 55 55 52 58 65 61 74 84 90 90 90
74 77 71 84 81 77 74 74 77 74 77 77 77 68 58 61 58 71 68 68 65 65 68 48 71 55 45 45 39 42 42 55 52 39 42 45 55 68 58 65 90 90 87
61 84 84 87 84 77 74 77 81 68 71 65 71 65 58 55 55 55 61 52 48 65 58 61 45 48 48 52 6 23 42 42 42 52 35 29 42 35 35 45 58 65 87
68 81 90 94 94 84 81 74 77 68 65 55 61 55 52 52 48 48 52 48 45 55 45 42 42 42 42 39 26 23 35 32 35 45 45 35 29 35 32 52 45 55 55
71 71 81 77 77 68 74 74 74 65 58 61 55 45 39 26 26 16 45 39 39 55 42 39 35 39 29 29 23 13 13 16 35 10 29 29 13 23 19 19 29 39 29
61 58 52 65 68 61 58 61 58 61 58 45 52 45 32 29 26 16 26 29 29 29 29 26 35 19 26 13 19 10 3 0 3 16 23 19 23 13 13 13 19 29 29
52 48 65 68 65 61 58 58 48 45 42 45 48 52 23 19 16 16 13 23 19 19 23 16 16 6 10 10 10 13 10 6 0 0 6 3 13 13 6 3 6 13 23
39 42 52 71 71 65 61 55 52 35 35 42 42 32 23 19 16 13 13 10 10 6 6 6 6 6 6 6 10 10 10 6 3 0 0 6 6 6 10 13 3 6 10
39 39 42 68 65 61 55 45 48 42 42 48 35 19 16 13 13 10 10 13 6 10 3 0 3 3 6 6 6 6 3 3 3 3 3 3 3 6 10 6 3 6 10

GEFSSE_con_cape1000_138.txt.gz
Probability
100 100 100 100 100 100 100 100 100 100 100 100 100 100 100 100 100 97 97 97 97 97 94 94 94 94 94 87 84 87 84 87 87 81 81 81 87 87 90 90 84 77 87
100 100 100 100 100 100 100 100 100 100 100 100 100 100 100 100 100 100 97 100 97 97 97 97 94 94 90 90 84 87 84 87 90 90 84 84 87 97 94 90 84 84 87
100 100 100 100 100 100 100 100 100 100 100 100 100 100 100 100 100 100 100 100 97 97 97 94 94 87 90 87 90 87 87 84 87 77 71 52 84 97 94 90 90 90 90
100 100 100 100 100 100 100 100 100 100 100 100 100 100 100 100 100 100 97 100 97 97 97 94 90 87 94 87 87 94 87 84 84 74 32 52 65 97 94 94 94 94 97
97 100 100 100 100 100 100 100 100 100 100 100 100 100 100 100 100 97 97 97 100 97 94 87 84 81 81 87 87 90 90 84 84 58 29 42 81 94 94 94 94 94 94
97 100 100 100 100 100 100 100 100 100 100 100 100 100 100 100 100 100 100 100 100 100 90 84 87 84 81 81 87 90 90 84 65 32 39 61 77 94 97 94 94 94 97
97 100 100 100 100 100 100 100 100 100 100 100 100 100 100 100 100 100 100 100 100 90 90 87 84 84 81 81 84 84 90 84 23 26 29 65 81 97 97 97 94 94 94
97 100 100 100 100 100 100 100 100 100 100 100 100 100 100 100 100 97 97 94 90 90 90 90 87 77 74 74 77 81 84 74 45 39 42 55 81 97 97 97 97 94 94
97 100 100 100 100 100 100 100 100 100 100 100 100 100 100 100 97 94 97 94 90 87 87 84 74 71 71 74 81 84 87 74 6 29 32 52 81 90 90 94 97 90 94
97 100 100 100 100 100 100 100 100 100 100 100 100 100 100 100 100 94 97 97 97 94 90 74 74 71 77 81 77 84 77 48 13 16 23 58 87 87 90 90 94 90 97
94 97 97 97 97 100 100 100 100 100 100 100 100 97 97 90 94 97 90 97 97 94 87 81 77 77 81 81 77 84 52 13 3 13 13 71 84 87 90 94 97 94 100
87 90 94 97 94 90 97 100 97 97 94 94 94 84 61 52 52 77 94 97 94 87 87 84 84 81 71 19 26 58 23 6 3 16 23 77 81 84 97 97 97 94 100
77 77 77 84 90 87 87 94 84 84 84 71 65 61 52 45 48 58 52 77 74 81 68 68 65 55 35 13 10 6 6 10 10 13 26 77 77 87 90 94 97 97 100
68 61 71 71 65 65 74 71 74 58 52 48 55 48 39 39 35 42 42 42 35 35 29 29 23 19 13 10 3 3 6 6 3 6 23 74 77 81 87 90 94 97 97
71 68 65 68 58 48 48 52 52 55 52 42 42 45 29 29 32 23 26 23 23 26 26 23 16 10 13 6 0 0 3 6 10 6 16 65 81 84 87 87 90 94 94
71 68 58 52 52 48 35 45 35 45 32 39 42 48 39 35 26 26 16 19 13 13 19 10 10 10 0 0 0 0 0 3 3 10 10 45 84 90 87 87 90 97 94
65 55 55 48 48 42 35 39 42 45 35 39 39 35 29 16 16 19 16 16 16 6 6 0 0 0 0 0 0 0 0 3 6 10 13 13 29 81 90 94 97 97 97
52 45 42 55 42 45 42 35 35 35 32 29 32 32 19 19 13 10 10 13 3 0 0 0 0 0 0 0 0 0 0 0 6 3 6 13 13 26 52 87 90 90 87
45 39 39 45 42 35 29 32 29 23 26 29 19 19 13 19 16 13 13 6 6 3 0 3 0 0 0 0 0 0 0 0 0 0 3 3 3 3 10 32 81 77 84
39 39 39 39 35 29 26 26 19 23 19 13 13 16 13 13 16 13 6 10 3 0 0 0 0 0 0 0 0 0 0 0 0 0 0 0 0 3 3 3 19 39 77
35 35 39 42 32 29 26 26 19 13 16 13 10 10 13 19 19 10 13 3 3 0 0 0 0 0 0 0 0 0 0 0 0 0 0 0 0 0 0 3 3 0 13
35 32 32 32 29 26 23 19 19 13 10 6 10 6 16 19 16 16 6 6 0 0 0 0 0 0 0 0 0 0 0 0 0 0 0 0 0 0 0 0 3 3 0
32 35 39 32 23 23 16 10 13 10 6 10 10 10 13 13 13 6 0 3 0 0 0 0 0 0 0 0 0 0 0 0 0 0 0 0 0 0 0 0 0 0 0
29 26 32 29 19 19 19 6 10 10 6 6 6 6 10 13 10 10 0 0 0 0 0 0 0 0 0 0 0 0 0 0 0 0 0 0 0 0 0 0 0 0 0
26 29 26 19 19 13 13 6 10 3 6 6 6 10 10 6 3 0 0 0 0 0 0 0 0 0 0 0 0 0 0 0 0 0 0 0 0 0 0 0 0 0 0
29 23 23 16 13 10 10 0 0 0 0 3 3 3 0 0 0 0 0 0 0 0 0 0 0 0 0 0 0 0 0 0 0 0 0 0 0 0 0 0 0 0 0

GEFSSE_con_cape1000_144.txt.gz
Probability
68 94 100 100 100 100 100 100 100 100 100 100 100 100 100 100 100 100 97 94 94 94 97 94 90 87 87 90 87 84 84 81 77 81 90 84 81 87 90 81 65 61 84
81 94 100 100 100 100 100 100 100 100 100 100 100 100 100 100 100 100 100 97 97 94 90 94 94 87 87 90 87 87 84 84 84 84 84 84 90 90 90 74 68 68 84
87 97 100 100 100 100 100 100 100 100 100 100 100 100 100 100 100 100 100 100 97 94 94 90 94 90 87 81 94 90 94 87 87 81 68 65 90 90 90 90 81 81 87
90 97 100 100 100 100 100 100 100 100 100 100 100 100 100 100 100 100 100 100 100 94 94 90 87 81 84 77 84 90 94 90 84 71 48 58 77 90 90 90 90 94 90
90 90 100 100 100 100 100 100 100 100 100 100 100 100 100 100 100 97 100 100 100 94 90 87 84 77 77 87 87 90 94 94 87 55 52 65 84 94 94 94 94 94 90
90 90 100 100 100 100 100 100 100 100 100 100 100 100 100 100 100 100 100 100 97 97 90 84 81 77 74 84 90 90 94 84 61 42 58 71 90 94 97 94 94 94 90
90 94 100 100 100 100 100 100 100 100 100 100 100 100 100 100 100 97 97 97 90 90 87 84 81 87 84 81 90 94 90 77 39 52 55 71 87 94 97 97 97 97 90
94 100 100 100 100 100 100 100 100 100 100 100 100 100 100 100 100 97 97 87 87 84 84 87 71 68 77 81 87 90 97 74 45 39 58 71 87 97 97 97 97 97 94
97 100 100 100 100 100 100 100 100 100 100 100 100 100 100 100 97 94 94 90 84 77 81 77 74 68 74 87 87 84 84 81 26 42 48 71 84 90 87 90 90 90 90
97 97 97 100 100 100 100 100 100 100 100 100 100 100 100 97 97 94 97 90 87 84 77 77 65 71 90 84 84 81 77 65 19 29 52 71 81 87 84 84 87 87 84
90 97 90 94 94 100 100 100 100 100 100 100 100 100 100 90 90 97 97 97 87 81 81 77 77 74 74 68 77 87 48 19 16 23 58 74 87 84 84 84 84 81 84
84 87 87 87 90 94 100 97 94 97 97 87 84 81 71 55 68 90 94 97 90 90 84 81 68 65 29 26 35 32 19 16 13 19 52 65 84 87 90 94 90 84 77
74 77 77 81 81 77 74 87 90 87 81 68 71 58 45 39 45 48 55 74 71 74 48 52 45 26 13 16 23 13 13 10 10 19 35 77 81 94 84 100 97 90 84
65 71 74 74 71 68 65 74 65 61 61 58 42 39 29 29 32 32 26 32 29 23 19 23 16 10 6 6 13 13 10 13 10 19 23 68 81 84 81 90 97 94 90
55 65 68 65 65 58 58 61 65 48 55 45 39 29 29 26 19 23 19 26 26 23 16 13 13 10 10 0 3 3 6 6 10 10 19 55 84 84 87 81 94 94 84
52 61 61 61 55 48 45 48 42 39 35 35 32 29 23 19 19 16 16 23 13 16 13 13 10 6 3 0 3 3 3 10 13 13 19 35 58 74 77 81 71 74 81
45 55 52 48 45 35 35 32 32 29 29 32 29 29 29 19 16 13 10 6 6 10 10 3 0 0 0 0 0 3 6 10 10 16 19 26 32 55 65 71 68 74 74
39 45 52 52 35 35 26 16 19 23 29 23 23 23 26 23 10 6 3 3 0 0 0 0 0 0 0 0 0 0 0 3 6 6 19 23 35 29 48 55 74 74 74
39 39 42 42 32 26 16 13 13 16 16 16 16 16 16 13 10 0 3 0 0 0 0 0 0 0 0 0 0 0 0 0 0 6 6 16 13 19 23 16 39 61 61
35 29 32 23 19 19 16 16 10 10 6 10 13 13 13 13 13 0 0 0 0 0 0 0 0 0 0 0 0 0 0 0 0 0 3 3 3 6 10 13 23 23 39
26 26 29 23 19 16 16 16 6 10 10 10 13 13 13 13 10 10 10 0 0 0 0 0 0 0 0 0 0 0 0 0 0 0 0 0 0 3 3 3 6 3 13
26 23 19 19 16 13 16 13 3 10 10 6 6 6 13 10 10 10 6 0 0 0 0 0 0 0 0 0 0 0 0 0 0 0 0 0 0 0 0 0 3 3 6
26 19 19 19 19 16 3 3 6 3 3 3 3 6 6 10 10 10 3 0 0 0 0 0 0 0 0 0 0 0 0 0 0 0 0 0 0 0 0 0 0 0 3
19 19 13 16 16 10 3 3 3 3 3 3 3 6 6 6 6 3 0 0 0 0 0 0 0 0 0 0 0 0 0 0 0 0 0 0 0 0 0 0 0 0 0
16 16 13 13 13 10 3 3 3 3 3 3 3 3 6 6 6 3 0 0 0 0 0 0 0 0 0 0 0 0 0 0 0 0 0 0 0 0 0 0 0 0 0
16 13 13 13 10 6 3 3 3 3 3 3 3 3 3 3 3 0 0 0 0 0 0 0 0 0 0 0 0 0 0 0 0 0 0 0 0 0 0 0 0 0 0

GEFSSE_con_cape1000_150.txt.gz
Probability
58 81 97 100 100 97 100 100 100 100 97 97 100 100 100 100 97 90 87 87 90 90 87 87 81 81 81 81 84 84 71 74 81 81 84 81 84 81 81 71 68 45 77
65 90 100 100 100 100 100 100 100 100 100 100 100 100 100 100 100 97 97 90 94 90 87 87 81 81 84 87 71 77 81 84 84 81 77 81 81 81 77 74 87 65 81
84 94 97 100 100 100 100 100 100 100 100 100 100 100 97 100 100 100 100 97 94 90 90 87 87 84 81 84 81 81 81 84 84 77 77 58 52 81 84 84 84 84 94
87 94 97 100 100 100 100 100 100 100 100 100 100 97 97 100 100 100 100 97 94 87 87 87 84 77 77 84 87 81 77 84 71 71 55 45 48 74 74 77 87 90 90
90 90 100 100 100 100 100 100 100 100 100 100 100 97 97 97 97 97 97 97 97 90 87 77 77 74 74 84 90 87 84 87 68 52 52 68 74 77 84 90 87 90 87
87 90 100 100 100 100 100 100 100 100 100 100 100 100 100 100 100 97 97 97 90 90 84 77 74 71 74 74 81 81 84 65 61 32 48 58 77 87 90 87 84 90 90
87 94 100 100 100 100 100 100 100 100 100 100 100 100 100 100 100 100 97 97 97 87 84 81 74 71 77 71 71 81 77 52 32 29 42 65 90 94 94 94 94 90 90
84 94 100 100 100 100 100 100 100 100 100 100 100 100 100 100 100 97 90 87 87 84 77 71 71 68 71 68 74 74 65 58 19 13 29 71 90 94 90 90 87 87 84
81 97 100 100 100 100 100 100 100 100 100 100 100 100 100 97 90 90 87 84 84 77 74 68 68 71 74 68 71 68 68 52 29 26 16 68 81 87 84 84 87 81 74
87 94 97 100 100 100 100 100 100 100 100 100 100 97 97 94 94 94 94 90 84 77 71 65 68 77 77 74 68 71 68 58 26 19 29 71 77 81 77 74 81 77 71
90 94 94 97 97 97 97 100 100 100 100 100 100 100 97 90 81 81 87 94 84 81 71 81 68 71 68 74 74 74 71 42 19 29 45 77 81 77 81 68 74 81 74
90 94 94 90 97 100 94 100 100 97 100 100 97 97 90 87 94 68 87 87 87 94 68 68 68 55 48 58 48 48 55 35 32 32 65 84 84 77 81 74 71 77 77
97 94 90 90 94 94 97 100 97 97 100 97 94 97 97 84 71 61 74 84 90 65 55 61 35 39 39 52 45 39 39 32 32 32 74 81 77 74 74 77 74 74 74
97 90 87 87 97 97 87 90 94 94 97 90 97 97 90 84 77 68 81 68 74 84 77 45 61 39 35 32 23 32 29 26 32 48 84 71 65 68 61 65 68 58 68
94 84 81 87 90 94 94 84 81 81 81 94 97 90 87 81 71 74 84 84 61 65 61 61 45 58 42 35 23 32 42 42 35 26 61 58 61 65 61 58 65 58 52
81 81 84 84 87 90 90 90 90 81 90 90 84 84 81 71 74 74 87 87 61 61 55 48 45 68 35 42 35 26 26 29 35 39 39 52 52 65 61 52 58 58 52
81 87 90 84 87 87 84 87 81 90 87 81 87 87 84 74 77 68 68 71 55 61 81 71 61 48 52 35 35 26 23 29 26 42 35 55 58 48 52 52 52 48 45
81 81 81 71 84 87 87 90 84 81 81 77 77 81 81 65 74 77 58 55 65 61 65 65 52 42 45 39 35 32 35 48 35 39 42 48 52 45 45 39 42 48 35
81 77 84 77 84 84 87 84 77 84 77 77 74 74 74 68 65 58 65 71 65 61 58 55 45 35 26 26 16 42 32 39 45 26 35 42 52 52 58 48 48 55 42
74 77 74 81 90 87 77 74 68 68 71 74 68 74 68 65 61 58 55 65 61 55 52 45 52 55 42 48 3 13 23 26 35 32 29 32 45 35 45 35 55 52 32
71 71 71 74 84 84 74 68 65 68 65 71 71 61 55 58 61 58 45 61 48 42 35 35 32 29 29 19 23 23 19 10 23 26 35 32 23 35 39 35 45 48 55
71 68 71 71 77 74 68 71 68 61 55 61 48 68 45 45 55 45 45 39 39 39 39 39 35 19 19 16 16 16 16 16 13 6 16 19 19 32 29 13 35 42 32
58 55 52 68 65 58 65 58 55 48 52 48 48 55 42 45 39 42 32 29 32 29 39 39 32 26 13 13 6 3 13 3 6 3 3 6 16 23 19 13 16 29 26
55 52 65 65 68 65 61 55 48 45 39 45 48 55 42 35 35 29 32 32 32 19 35 26 13 19 19 13 3 3 0 0 3 3 0 3 3 13 13 0 6 10 13
52 55 52 52 61 58 61 61 61 45 42 45 52 45 42 39 19 26 29 29 23 19 26 19 19 19 6 6 3 0 0 0 0 3 10 0 0 0 0 0 3 10 3
45 45 45 61 52 58 58 58 58 55 42 42 42 39 29 23 23 23 23 23 23 19 19 19 19 13 6 3 6 0 0 0 0 3 6 13 3 3 0 0 0 3 3

GEFSSE_con_cape1000_156.txt.gz
Probability
71 87 100 97 97 97 97 100 97 94 97 97 97 97 90 90 94 94 90 84 84 87 84 81 81 84 74 74 71 71 77 81 84 84 81 77 71 77 74 74 71 65 81
77 94 97 97 97 97 97 100 97 97 97 97 100 100 100 97 94 94 94 90 87 87 84 77 77 81 74 68 77 81 77 77 81 81 74 68 71 77 77 71 84 71 81
81 97 100 100 100 97 100 100 97 97 97 100 100 100 100 100 97 97 94 90 87 84 84 77 74 77 77 77 81 81 74 71 74 77 77 32 61 71 71 71 87 87 84
77 94 100 100 100 100 100 100 100 100 100 100 100 100 100 100 97 97 97 94 87 90 84 84 81 81 77 87 84 77 65 48 58 71 48 32 39 74 81 81 90 94 77
84 94 100 100 100 100 100 100 100 100 100 100 100 100 100 100 100 100 94 90 87 94 90 87 87 77 84 87 81 71 61 52 58 48 58 45 61 84 87 87 90 90 77
87 94 100 100 100 100 100 100 100 100 100 100 100 100 100 100 100 97 97 94 94 87 84 81 81 77 81 71 65 48 42 48 55 55 58 55 77 87 90 84 90 90 84
90 94 97 100 100 100 100 100 100 100 100 100 100 100 100 100 97 100 97 94 94 87 81 77 68 65 68 58 48 45 42 71 65 65 71 77 81 90 87 81 84 90 94
94 90 97 100 100 100 100 100 100 100 100 100 100 97 100 97 97 94 94 87 90 77 81 77 74 71 61 48 45 45 52 71 48 48 71 71 90 97 87 84 84 87 84
94 97 97 97 100 100 100 100 100 100 100 100 100 100 100 100 97 87 87 87 77 81 81 68 65 61 58 52 48 45 55 87 55 45 45 58 87 97 84 81 81 84 84
97 100 97 100 100 100 100 100 100 100 100 100 97 94 94 94 94 90 90 87 84 77 71 61 52 52 48 52 52 55 61 68 23 45 52 68 90 87 74 74 74 77 77
97 97 100 100 100 97 90 100 100 100 100 97 94 90 97 97 87 90 84 84 77 74 68 61 61 68 61 68 77 68 68 42 23 45 45 84 94 87 71 74 77 74 71
97 97 97 100 97 94 90 100 100 100 100 100 100 100 100 100 100 94 87 87 77 81 74 71 65 61 65 68 61 81 45 35 23 39 58 90 94 77 68 74 71 71 68
97 94 94 94 97 97 97 100 97 100 100 100 97 100 100 100 97 84 94 90 100 90 90 87 84 65 65 68 58 45 42 23 29 29 68 87 87 77 74 65 61 68 58
94 87 87 97 97 97 97 97 100 100 100 100 100 100 100 100 97 97 97 94 94 100 100 87 97 84 71 65 58 39 35 45 42 42 68 90 87 84 74 84 77 68 65
94 97 97 97 97 94 94 90 87 94 97 100 100 100 97 100 97 97 100 100 97 97 87 94 90 87 74 84 71 52 42 42 48 52 55 87 84 84 84 68 68 61 52
94 94 97 97 94 94 94 94 94 90 94 97 90 90 87 90 90 97 97 97 94 90 90 94 97 90 94 94 84 68 52 48 58 55 55 71 87 87 84 74 61 42 42
94 90 90 94 90 90 90 84 84 87 87 84 87 90 87 84 87 90 90 90 94 90 90 94 87 90 90 87 77 74 68 71 55 58 61 58 58 87 87 71 61 48 39
97 84 87 81 87 87 87 87 87 87 84 81 87 87 87 84 87 87 87 87 90 84 87 87 87 90 87 77 84 61 81 81 48 58 68 71 71 45 68 71 61 58 45
94 90 90 90 87 81 84 87 87 87 84 87 84 84 81 68 71 84 84 84 84 84 87 77 84 90 84 74 61 68 58 68 77 55 68 71 61 58 45 55 68 55 55
94 90 87 87 90 87 84 87 84 81 81 84 84 81 74 74 71 77 77 74 81 81 77 81 84 77 81 77 32 32 58 68 74 71 65 55 61 45 55 32 48 48 68
94 87 84 87 84 87 87 81 81 81 81 74 71 71 71 71 65 65 65 74 71 81 81 68 74 68 68 68 61 48 55 55 58 68 58 68 48 48 61 61 52 52 39
87 87 87 87 81 84 87 87 87 87 81 74 68 74 71 61 61 52 68 71 74 71 58 58 58 65 61 55 48 58 35 42 45 23 55 55 32 45 39 32 58 48 32
81 87 74 90 87 90 87 81 77 81 74 68 71 65 65 55 52 61 65 61 68 58 65 55 55 55 55 52 58 52 42 29 32 48 39 32 35 48 42 35 39 42 35
84 77 77 81 84 81 84 74 71 68 65 68 68 68 58 58 55 55 55 55 52 61 68 45 48 52 48 35 48 52 45 42 29 23 35 35 35 32 26 16 23 35 32
68 74 77 77 81 77 81 81 71 65 71 68 65 58 58 58 55 48 52 45 45 42 48 52 55 48 55 61 48 35 29 32 10 26 13 19 29 32 26 23 23 29 26
65 71 77 81 81 81 81 74 74 71 68 68 65 61 58 61 55 52 45 48 42 39 42 42 45 35 48 52 58 39 26 19 13 13 13 6 16 13 13 19 10 13 19

GEFSSE_con_cape1000_162.txt.gz
Probability
87 94 97 97 97 97 97 97 100 100 100 100 100 100 94 94 94 94 90 90 90 90 90 90 84 77 81 87 87 87 90 84 84 81 68 77 77 81 84 74 71 61 77
90 94 97 97 97 100 97 97 100 100 100 100 100 97 94 94 94 90 90 90 90 90 90 90 84 81 84 90 90 90 90 87 84 71 71 61 74 81 90 87 77 71 74
87 97 97 97 97 97 97 97 100 100 100 100 97 97 97 94 94 94 90 94 90 87 90 90 90 81 84 84 81 87 77 81 77 74 58 35 65 77 90 87 81 77 77
87 94 97 97 97 97 97 100 100 100 100 100 100 100 100 97 97 94 94 90 90 87 84 84 87 84 81 81 74 74 77 81 71 52 6 23 39 87 94 94 84 84 81
90 94 97 100 97 97 97 100 100 100 100 100 100 100 100 100 97 94 97 94 94 90 87 87 84 77 77 74 74 87 81 71 68 29 6 16 52 90 94 87 87 90 87
90 97 97 100 97 97 100 100 100 100 100 100 100 100 100 100 97 94 97 97 94 94 90 90 81 81 74 77 81 84 81 71 35 3 13 26 68 87 94 90 90 94 90
97 97 100 100 100 100 100 100 100 100 100 100 100 100 100 100 100 97 97 97 97 94 90 84 84 74 65 71 71 77 74 71 10 6 6 29 68 94 94 94 90 87 87
94 100 100 100 100 100 100 100 100 100 100 100 100 100 97 97 97 97 94 97 81 77 81 84 81 81 65 65 65 87 84 68 29 13 19 42 87 97 97 94 94 87 87
97 100 100 100 100 100 100 100 100 100 100 100 100 100 97 97 97 94 94 87 84 81 74 77 61 52 58 58 68 77 81 68 3 13 16 61 90 90 87 90 87 87 84
94 97 97 97 97 100 100 100 100 100 100 100 100 100 100 97 94 90 90 87 84 84 77 61 48 42 45 58 65 68 81 45 3 10 26 77 87 87 87 87 81 81 87
94 94 97 97 94 94 97 100 100 100 100 100 100 100 100 65 65 77 87 90 84 81 74 61 58 55 65 52 71 71 19 0 3 13 19 84 90 81 77 84 81 77 77
94 90 90 87 84 87 90 90 87 90 90 87 84 87 48 45 35 61 90 87 84 81 74 74 71 55 39 3 32 23 0 6 3 13 42 87 90 81 77 77 81 77 77
87 84 84 77 81 81 84 81 81 71 68 58 55 58 35 29 42 48 45 68 58 61 42 48 52 29 10 0 0 3 6 6 0 13 65 84 90 84 81 81 81 77 74
87 90 77 74 77 68 81 81 77 61 55 55 52 35 13 16 13 13 23 26 26 16 3 3 10 6 3 0 0 0 3 6 3 10 58 87 90 94 77 77 84 81 74
77 77 77 71 65 68 65 71 77 65 55 52 32 26 19 10 10 13 10 10 6 6 3 3 0 0 0 0 0 0 3 6 3 6 45 84 87 90 87 77 77 74 58
71 71 71 68 61 58 52 61 68 58 42 48 29 23 26 10 6 10 6 3 10 10 6 3 0 0 0 0 0 0 0 6 3 6 32 68 87 90 94 94 77 65 61
71 58 65 58 55 45 42 52 55 32 39 42 26 26 35 23 19 16 19 13 13 10 3 0 3 0 0 0 0 0 0 0 3 10 19 26 48 87 90 90 81 81 71
74 61 58 68 55 45 42 42 42 32 39 29 19 32 39 32 19 16 16 16 10 13 3 6 0 0 0 0 0 0 0 0 3 6 10 16 23 29 55 71 77 81 65
65 58 52 52 55 52 39 39 45 35 29 29 23 32 39 32 32 16 16 16 16 6 6 6 3 0 0 0 0 0 0 0 3 6 6 6 6 6 13 42 71 61 58
55 55 55 52 52 42 42 48 42 35 39 35 29 29 29 32 32 19 19 19 10 6 3 3 3 0 0 0 0 0 0 0 0 3 6 6 3 6 6 10 26 35 61
55 55 65 58 45 42 42 45 39 35 39 35 29 29 32 32 32 23 23 16 16 13 3 3 0 3 0 0 0 0 0 0 0 0 0 3 3 6 3 3 3 6 13
55 55 58 48 48 42 39 35 32 26 26 32 29 26 32 32 26 23 19 23 16 10 10 6 0 3 0 0 0 0 0 0 0 0 0 0 0 3 10 3 0 0 0
58 58 58 55 39 35 39 29 26 23 23 23 29 23 26 29 26 23 16 16 19 13 6 3 0 3 0 0 0 0 0 0 0 0 0 0 0 0 3 0 0 0 0
58 55 61 48 45 39 35 39 29 23 19 19 16 23 23 26 26 23 16 19 19 10 6 6 3 0 0 0 0 0 0 0 0 0 0 0 0 0 0 0 3 0 0
61 58 48 45 45 35 35 32 29 16 13 13 16 16 13 19 23 19 23 19 13 6 6 3 3 0 0 0 0 0 0 0 0 0 0 0 0 0 0 0 0 0 0
61 61 45 45 42 32 35 26 26 16 13 16 16 16 16 16 16 19 23 19 10 10 6 6 3 3 3 3 0 0 0 0 0 0 0 0 0 0 0 0 0 0 0